Weather Roundup
Issued by NWS

Home | Current Version | Previous Version | Text Only | Print | Product List | Glossary On
Versions: 1 2 3 4 5 6 7 8 9 10 11 12 13 14 15 16 17 18 19 20 21 22 23 24 25 26 27 28 29 30 31 32 33 34 35 36 37 38 39 40 41 42 43 44 45 46 47 48 49 50
000
NZUS93 KARX 280359
HRRWXR

CURRENT HOURLY OBSERVATIONS ACROSS
MUCH OF THE UPPER MISSISSIPPI VALLEY
NATIONAL WEATHER SERVICE LA CROSSE WI
1000 PM CST SAT DEC 27 2014


...SOUTHEAST MINNESOTA...


CITY           SKY/WX    TMP DP  RH WIND       PRES   REMARKS
ROCHESTER      CLEAR     10   5  80 SW13      30.12S WCI  -5
ROCHESTER/MAYO FAIR      13   8  80 SW7       30.13S WCI   3
WINONA         CLEAR     14   9  79 CALM      30.18R
AUSTIN         CLEAR      9   7  92 CALM      30.14R
ALBERT LEA     CLEAR     12  10  92 SW5       30.14R WCI   4
DODGE CENTER   PTCLDY     9   5  85 SW9       30.10F WCI  -5
PRESTON        CLEAR     10   6  82 W6        30.14R WCI   1
OWATONNA       CLEAR      9   5  85 SW6       30.12S WCI  -1
FARIBAULT      CLEAR      9   5  85 S5        30.12S WCI   0
$$

...ELSEWHERE IN MINNESOTA...


CITY           SKY/WX    TMP DP  RH WIND       PRES   REMARKS
MINNEAPOLIS    PTCLDY    12   6  77 SW6       30.12S WCI   3
INTNL FALLS    LGT SNOW  13   8  81 W9        29.98R WCI   1
DULUTH         PTCLDY    16   5  62 W6        29.97S WCI   7
RED WING       CLEAR      9   5  85 CALM      30.13S
REDWOOD FALLS  CLEAR     11   6  81 W6        30.12S WCI   1
MANKATO        CLEAR     12   5  73 SW8       30.12S WCI   1
WORTHINGTON    CLEAR      9 N/A N/A SW6       30.12S WCI  -1
FAIRMONT       FAIR      12   7  79 W13       30.13S WCI  -3
$$

...SOUTHWEST WISCONSIN...


CITY           SKY/WX    TMP DP  RH WIND       PRES   REMARKS
LA CROSSE      CLEAR     18  11  74 SW6       30.17R WCI  10
PRAIRIE DU CHI CLEAR     21  14  74 W8        30.18S WCI  11
BOSCOBEL       PTCLDY    22  16  78 W6        30.17R WCI  14
LONE ROCK      NOT AVBL
PLATTEVILLE    FAIR      22  19  85 W9        30.15R WCI  12
FORT MC COY    CLEAR     21  17  84 W8        30.13R WCI  11
VIROQUA        FAIR      19  19 100 W9        30.11R WCI   7
WIS DELLS      NOT AVBL
$$

...ELSEWHERE IN WISCONSIN...


CITY           SKY/WX    TMP DP  RH WIND       PRES   REMARKS
MILWAUKEE      CLOUDY    33  24  69 W13       30.08R WCI  24
MADISON        MOCLDY    27  19  72 NW9       30.11R WCI  18
GREEN BAY      CLEAR     30  22  72 W10       30.04R WCI  21
EAU CLAIRE     NOT AVBL
BLACK RVR FLS  FAIR      19  16  89 SW3       30.12R
MEDFORD        CLEAR     12  10  93 SW5       30.02S WCI   4
WAUSAU         CLEAR     17  14  88 W6        30.04R WCI   9
WIS RAPIDS     CLEAR     21  16  81 W8        30.10R WCI  11
MARSHFIELD     CLEAR     16  13  88 W8        30.05S WCI   5
RICE LAKE      CLOUDY    16  11  82 W8        30.08R WCI   5
$$

...NORTHEAST IOWA...


CITY           SKY/WX    TMP DP  RH WIND       PRES   REMARKS
DECORAH        CLEAR     16  10  79 CALM      30.14S
MASON CITY     CLEAR     13   9  84 W13       30.17R WCI  -2
CHARLES CITY   CLEAR     14  12  92 W7        30.17S WCI   4
OELWEIN        CLEAR     18  14  86 W9        30.17S WCI   6
$$

...ELSEWHERE IN IOWA...


CITY           SKY/WX    TMP DP  RH WIND       PRES   REMARKS
DES MOINES     CLEAR     21  16  81 W3        30.23S
IOWA CITY      CLEAR     23  17  78 NW8       30.23R WCI  14
FORT DODGE     FAIR      12   7  79 W6        30.19R WCI   3
$$

...NORTHERN ILLINOIS...


CITY           SKY/WX    TMP DP  RH WIND       PRES   REMARKS
CHICAGO-OHARE  CLOUDY    32  25  75 NW16      30.11R WCI  21
CHICAGO-MIDWAY MOCLDY    34  26  72 NW13      30.11R WCI  25
MOLINE         PTCLDY    27  20  75 NW10      30.21R WCI  17
ROCKFORD       CLOUDY    31  24  75 W9        30.15R WCI  23
PEORIA         CLOUDY    32  23  69 NW10      30.19R WCI  24
$$

NOTE: "FAIR" INDICATES FEW OR NO CLOUDS BELOW 12,000 FEET WITH NO
SIGNIFICANT WEATHER AND/OR OBSTRUCTIONS TO VISIBILITY. WIND
SPEEDS ARE IN MILES-PER-HOUR.



USA.gov is the U.S. government's official web portal to all federal, state and local government web resources and services.